STARLINK-37283, 68568

Orbit data source: Space-Track

STARLINK-37283, 68568 is a payload satellite owned by SpaceX/Seattle (US) in LEO that was launched on Thu, 02 Apr 2026 UTC via an FALCON 9 launch vehicle from the Air Force Eastern Test Range (AFETR). Payload-class satellites include a variety of spacecraft equipped with specific instruments for various scientific and technological missions. These include communications satellites like Starlink; space stations such as the ISS; scientific satellites like the Hubble; Earth observation satellites from companies like Planet Labs, Umbra, and HawkEye 360; GPS; miniature CubeSats for education and research; and military/defense satellites.

Loading next visibility...
Identifier
68568, 2026-070AC
Orbit
LEO
Country
Flag of USUS
Related business
Manufacturer
SpaceX/Seattle
Mission
Operational Commercial Communications
Bus & Motor
STARLINK V2MO, Unknown motor
Mass
575 kg wet, ~530 kg dry
Launch date (UTC)
2026-04-02 (5 months ago)
Launch vehicle
FALCON 9
Launch site
Air Force Eastern Test Range (AFETR)
Object type
Payload
Rocket body
Debris
Shape & HBR
Box + 1 Pan, 17.7 m
Radar Cross Section
41.120 m², Large (>1 m²)

Expand to show TLE details & history
Last TLE update: 23 hours ago

TLE from 23 hours ago
0 STARLINK-37283
1 68568U 26070AC  26246.44025551  .00019814  00000-0  59581-3 0  9998
2 68568  53.1581 253.7966 0000758  78.6466 281.4622 15.34410376 23816
Epoch: 2026-09-03T10:33Z
TLE epoch observation values (Epoch: 2026-09-03T10:33:58.076Z)
Latitude
0.00002°
Longitude
112.72623°
Altitude
463.471 km
Speed
7.636 km/s
True Right ascension
16h 55m 11s
True Declination
0° 00' 00"
Sunlit
Object was in daylight at epoch
Visualization orbit readout
Latitude
Unknown
Longitude
Unknown
Altitude
Unknown
Speed
Unknown
Apparent Right ascension
Unknown
Apparent Declination
Unknown
Sunlit
N/A
Visualization observer readout
Local Sidereal Time
01:36:42
Azimuth
Unknown
Elevation
Unknown
Doppler factor
Unknown
Orbital elements
Apogee altitude
463.448 km
Perigee altitude
462.411 km
Semi-major axis
6,841.067 km
Eccentricity
0.00008
Inclination
53.1581°
RAAN
253.7966°
Arg. of periapsis
78.6466°
True anomaly
281.45369°
Mean anomaly
281.4622°
Eccentric anomaly
281.45794°
Mean motion
3.83581 °/min
Orbital period
93.85 mins
BSTAR
0.00059581
Loading maneuver chart data...
Computing Atmospheric mass density...
Loading historical data...
Loading historical data...
Loading historical data...
Loading historical data...
Loading historical data...
Loading historical data...
Loading historical data...

Documentation

Showing up to 5 results
|